COSMOS 970 DEB, 14442

Orbit data source: Space-Track

COSMOS 970 DEB, 14442 is space debris in LEO originally from a launch on Wed, 21 Dec 1977 UTC launched from the Tyuratam Missile And Space Complex (TTMTR). Debris objects in space refer to the collection of defunct objects orbiting the Earth. Examples of debris include non-operational satellites, rocket bodies, and fragments generated from explosions, collisions, or faulty payload assembly.

Loading next visibility...
Identifier
14442, 1977-121BE
Orbit
LEO
Country
Flag of CISCIS
Related business
Manufacturer
Unknown
Mission
Spacecraft
Bus & Motor
Unknown
Mass
Unknown
Launch date (UTC)
1977-12-21 (48 years ago)
Launch vehicle
Unknown
Launch site
Tyuratam Missile And Space Complex (TTMTR)
Object type
Payload
Rocket body
Debris
Shape & HBR
Unknown shape, 0.1 m
Radar Cross Section
Medium (>0.1 m² and <1 m²)

Expand to show TLE details & history
Last TLE update: 19 hours ago

TLE from 19 hours ago
0 COSMOS 970 DEB
1 14442U 77121BE  26171.24434566  .00001354  00000-0  12479-2 0  9992
2 14442  65.3674  92.8283 0016546 305.3535 209.7203 13.86032921402235
Epoch: 2026-06-20T05:51Z
TLE epoch observation values (Epoch: 2026-06-20T05:51:51.465Z)
Latitude
22.64282°
Longitude
-94.56648°
Altitude
954.895 km
Speed
7.371 km/s
True Right ascension
17h 27m 26s
True Declination
22° 31' 27"
Sunlit
Object was in full shadow at epoch
Visualization orbit readout
Latitude
Unknown
Longitude
Unknown
Altitude
Unknown
Speed
Unknown
Apparent Right ascension
Unknown
Apparent Declination
Unknown
Sunlit
N/A
Visualization observer readout
Local Sidereal Time
11:42:43
Azimuth
Unknown
Elevation
Unknown
Doppler factor
Unknown
Orbital elements
Apogee altitude
953.241 km
Perigee altitude
929.02 km
Semi-major axis
7,319.268 km
Eccentricity
0.00165
Inclination
65.3674°
RAAN
92.8283°
Arg. of periapsis
305.3535°
True anomaly
209.62647°
Mean anomaly
209.7203°
Eccentric anomaly
209.67337°
Mean motion
3.46611 °/min
Orbital period
103.86 mins
BSTAR
0.0012479
Loading maneuver chart data...
Computing Atmospheric mass density...
Loading historical data...
Loading historical data...
Loading historical data...
Loading historical data...
Loading historical data...
Loading historical data...
Loading historical data...

Documentation

Showing up to 5 results
|